Regional Weather Roundup
Issued by NWS

Home | Current Version | Previous Version | Graphics & Text | Print | Product List | Glossary Off
Versions: 1 2 3 4 5 6 7 8 9 10 11 12 13 14 15 16 17 18 19 20 21 22 23 24 25 26 27 28 29 30 31 32 33 34 35 36 37 38 39 40 41 42 43 44 45 46 47 48 49 50

000
ASUS43 KTOP 251208
RWRKS

WEATHER ROUNDUP FOR KANSAS
NATIONAL WEATHER SERVICE GOODLAND KS
700 AM CDT SUN SEP 25 2016

NOTE:  "FAIR" INDICATES FEW OR NO CLOUDS BELOW 12,000 FEET WITH NO
SIGNIFICANT WEATHER AND/OR OBSTRUCTIONS TO VISIBILITY.

KSZ001>006-013>018-027>032-041>047-251300-
NORTHWEST KANSAS

CITY           SKY/WX    TMP DP  RH WIND       PRES   REMARKS
GOODLAND       CLEAR     47  40  76 NW14      30.29R
6HR MIN TEMP:  46; 6HR MAX TEMP:  53;

HAYS           CLOUDY    55  39  54 N17       30.19R
HILL CITY      CLEAR     54  44  69 NW14      30.22R HAZE
6HR MIN TEMP:  53; 6HR MAX TEMP:  58;

RUSSELL        CLOUDY    53  47  79 N7        30.18R
6HR MIN TEMP:  53; 6HR MAX TEMP:  65;

$$

KSZ061>065-074>080-084>089-251300-
SOUTHWEST KANSAS

CITY           SKY/WX    TMP DP  RH WIND       PRES   REMARKS
DODGE CITY     PTCLDY    50  46  86 N10       30.21R
6HR MIN TEMP:  50; 6HR MAX TEMP:  63;

ELKHART          N/A     52  36  54 N7          N/A
GARDEN CITY    PTCLDY    53  41  63 N17       30.23R
6HR MIN TEMP:  51; 6HR MAX TEMP:  59;

GREAT BEND     MOCLDY    55  43  62 N9        30.18R
LIBERAL        MOCLDY    54  45  71 N16       30.24R
PRATT          CLOUDY    54  47  77 N18G24    30.15R
6HR MIN TEMP:  54; 6HR MAX TEMP:  64;

$$

KSZ066>073-081>083-090>101-251300-
SOUTHEAST KANSAS

CITY           SKY/WX    TMP DP  RH WIND       PRES   REMARKS
CHANUTE        CLOUDY    69  67  93 SW3       30.08R
6HR MIN TEMP:  68; 6HR MAX TEMP:  70; 6HR PCP:  0.40;

COFFEYVILLE    CLOUDY    68  67  96 NW6       30.07R
6HR MIN TEMP:  68; 6HR MAX TEMP:  69;

HUTCHINSON     CLOUDY    61  51  70 N17G28    30.11R
6HR MIN TEMP:  61; 6HR MAX TEMP:  67; 6HR PCP:  0.01;

MEDICINE LODGE   N/A     60  56  86 N20G25      N/A
NEWTON         CLOUDY   N/A N/A N/A NW7       30.10R
PARSONS        CLOUDY    69  67  93 N5        30.08R
6HR MIN TEMP:  68; 6HR MAX TEMP:  69;

WICHITA INTL   CLOUDY    68  67  96 NW6       30.08R
6HR MIN TEMP:  67; 6HR MAX TEMP:  68; 6HR PCP:  1.01;

WICHITA JABRA  LGT RAIN  66  66 100 CALM      30.08R
6HR MIN TEMP:  66; 6HR MAX TEMP:  67; 6HR PCP:  0.47;

WICHITA MCCONL DRIZZLE   68  66  94 N7        30.08R
WINFIELD       LGT RAIN  67  67 100 E3        30.08S
6HR MIN TEMP:  67; 6HR MAX TEMP:  68; 6HR PCP:  0.13;

$$

KSZ007>012-019>026-033>040-048>060-102>105-251300-
NORTHEAST KANSAS

CITY           SKY/WX    TMP DP  RH WIND       PRES   REMARKS
CONCORDIA      CLOUDY    56  50  80 NW9       30.14R
6HR MIN TEMP:  56; 6HR MAX TEMP:  68; 6HR PCP: TRACE;

EMPORIA        MOCLDY    66  66 100 CALM      30.07R
6HR MIN TEMP:  66; 6HR MAX TEMP:  68; 6HR PCP:  0.22;

LAWRENCE       LGT RAIN  68  68 100 CALM      30.04S
6HR MIN TEMP:  68; 6HR MAX TEMP:  69; 6HR PCP:  0.13;

MANHATTAN      CLOUDY    61  53  75 N8        30.08R
6HR MIN TEMP:  61; 6HR MAX TEMP:  70; 6HR PCP:  0.12;

MARYSVILLE     CLOUDY    57  52  82 N12G17    30.11R
OLATHE IND     LGT RAIN  67  67 100 SW8       30.07R
6HR MIN TEMP:  67; 6HR MAX TEMP:  69; 6HR PCP:  0.34;

OLATHE EXE     LGT RAIN  67  65  93 W7        30.05R
6HR MIN TEMP:  67; 6HR MAX TEMP:  69; 6HR PCP:  0.11;

SALINA         CLOUDY    60  53  77 NW12      30.12R
6HR MIN TEMP:  60; 6HR MAX TEMP:  70;

TOPEKA BILLARD CLOUDY    68  66  93 W3        30.05R
6HR MIN TEMP:  67; 6HR MAX TEMP:  69; 6HR PCP:  0.15;

TOPEKA FORBES  CLOUDY    75  75 100 W7        30.06R
$$



USA.gov is the U.S. government's official web portal to all federal, state and local government web resources and services.